Dewpoint
48 49 49 49 49 49 49 49 49 49 50 51 52 52 53 54 51 6 5 25 44 55 51 25 23 26 16 24 18 13 1 -1 16 -2 -1 1 2 2 25 59 60 61 59 61 64
48 48 48 49 49 49 49 49 50 50 51 52 52 53 53 54 35 4 35 54 57 56 22 25 23 25 9 22 12 2 -1 -1 1 0 2 3 1 1 47 55 59 60 62 62 65
48 48 48 48 48 49 49 50 51 52 52 53 53 53 54 53 10 4 49 52 54 51 30 30 28 21 12 11 11 17 2 2 5 9 9 5 3 2 47 24 56 58 60 61 63
48 47 47 48 48 48 49 51 51 52 52 52 53 53 54 34 9 4 49 50 51 36 16 17 17 16 12 15 14 19 11 16 13 13 7 7 7 3 21 24 55 60 61 61 62
48 48 48 47 48 48 50 52 51 51 52 52 52 53 32 3 1 4 41 27 6 4 7 13 17 17 16 15 15 13 16 16 15 11 7 8 5 5 15 40 62 61 61 61 61
48 48 49 48 48 49 50 51 52 52 52 52 51 53 12 1 2 4 5 4 3 2 2 8 18 19 17 19 16 18 17 12 7 1 2 3 7 5 9 21 61 61 60 60 61
48 50 49 48 48 49 49 50 50 50 51 52 52 46 5 3 5 6 8 7 4 6 4 5 12 16 19 16 18 17 12 9 2 -1 -2 2 5 7 7 11 30 58 60 59 60
48 50 50 49 48 48 48 49 49 50 51 51 51 17 6 8 12 7 9 9 8 7 6 14 16 3 6 17 3 -2 2 -3 -1 -1 -1 5 5 7 32 30 31 33 29 52 60
49 49 49 48 48 47 48 48 49 49 51 51 23 7 2 21 5 5 9 13 8 7 5 3 4 0 0 11 1 -4 -5 -6 -6 -0 -1 1 3 25 31 29 27 28 31 34 41
48 48 47 47 48 49 49 49 49 37 31 30 10 7 4 4 7 8 9 13 9 8 5 4 3 3 -0 -2 -4 -7 -7 -7 -6 -4 1 -1 -2 33 31 29 28 26 26 28 31
46 46 46 47 47 48 41 26 13 15 11 6 8 4 4 3 8 9 9 13 13 7 2 6 4 1 1 -1 -4 -4 -5 -2 -3 0 2 -2 12 33 32 30 28 27 25 25 27
49 46 46 46 46 46 36 34 32 17 8 9 11 7 6 7 7 17 11 12 16 11 4 10 7 6 12 6 5 7 4 7 3 5 3 -1 28 31 30 31 29 28 26 25 25
50 49 49 47 47 40 31 32 34 23 10 7 10 11 5 13 16 19 14 11 14 15 8 11 13 14 17 17 9 12 12 13 10 11 1 1 17 25 27 27 28 29 28 27 25
49 49 46 46 39 37 31 41 39 25 10 8 9 12 8 12 17 23 23 18 18 17 16 17 19 18 18 17 17 7 19 19 18 13 5 5 -7 21 25 25 25 27 28 27 27
49 48 46 44 35 36 39 44 41 33 5 9 11 14 11 15 17 21 25 21 19 22 16 19 22 19 18 20 22 15 23 20 19 16 7 5 -2 20 24 23 25 25 27 27 26
48 48 46 40 37 39 43 39 36 19 -2 12 13 14 17 20 21 23 25 25 24 20 22 24 25 21 21 22 23 23 21 18 12 11 7 6 -1 17 22 26 24 26 27 27 26
47 48 45 39 33 41 39 32 17 9 15 16 16 18 18 19 21 22 22 23 22 14 19 21 23 24 23 23 23 22 17 7 5 7 5 14 13 18 24 27 25 26 27 28 27
45 43 42 40 40 39 32 18 2 18 19 21 21 21 19 19 21 23 21 21 24 23 20 19 16 19 20 23 19 20 22 12 8 8 10 15 14 17 25 27 26 26 28 28 28
42 36 34 37 44 32 25 15 15 21 22 22 22 19 20 21 19 22 23 23 23 26 21 20 22 20 20 21 19 20 22 27 21 19 15 17 19 21 22 22 25 24 25 27 29
31 29 28 36 39 30 23 20 20 23 23 25 20 22 19 21 20 22 23 25 26 26 27 26 18 19 19 19 18 20 22 21 19 7 8 13 10 7 17 20 24 24 25 27 29
34 25 28 40 32 26 20 19 23 24 26 25 24 23 24 22 22 24 26 27 29 27 27 26 22 17 14 13 9 17 18 18 22 22 10 7 2 21 21 22 24 26 26 28 29
28 26 33 32 23 23 21 23 29 24 28 28 27 27 25 23 23 26 27 28 31 30 25 25 20 13 13 16 19 17 16 20 18 16 17 15 11 20 21 22 23 22 24 28 29
27 26 32 29 19 20 20 22 24 23 25 26 27 27 26 24 20 24 26 31 27 24 26 22 17 14 16 13 15 15 18 16 19 21 14 11 12 19 24 21 23 25 22 24 26
26 26 29 28 25 20 21 22 21 26 26 30 32 31 25 23 24 22 24 30 33 26 27 20 16 9 6 3 12 13 19 14 14 13 14 13 14 19 24 23 21 23 23 23 23
30 26 26 21 22 23 23 24 22 22 25 26 27 28 26 22 23 22 24 25 32 32 23 19 8 10 13 16 19 22 21 16 14 15 10 14 16 22 25 25 24 24 25 23 24
28 26 27 25 24 21 24 22 21 23 24 22 25 28 26 25 22 20 24 24 24 29 26 22 13 13 11 19 20 21 19 19 19 19 19 19 17 23 23 24 25 24 24 24 25
34 30 28 23 20 19 20 22 25 25 27 28 28 26 24 24 25 25 27 27 27 27 23 20 17 14 7 19 19 17 14 15 17 19 18 15 19 22 21 23 25 24 24 25 25
Lifted_Index
13 13 12 13 13 13 13 13 13 13 12 12 11 11 11 11 12 12 12 11 10 10 10 10 10 9 9 8 8 6 4 3 3 4 4 5 5 4 -1 -4 -5 -5 -5 -5 -5
13 13 13 13 13 13 13 13 13 12 12 11 11 11 11 11 11 12 12 12 10 10 11 10 9 9 9 8 7 6 4 4 5 5 5 5 5 4 1 -3 -4 -5 -5 -5 -5
14 14 14 14 14 13 13 13 13 12 12 11 11 11 11 11 11 12 13 13 11 11 11 11 10 9 8 8 7 6 5 5 6 6 6 5 5 5 3 0 -3 -5 -5 -5 -5
14 14 14 14 14 14 13 13 13 12 12 11 11 11 11 11 10 12 14 14 13 12 12 11 10 9 8 7 7 6 6 6 7 7 6 6 5 5 4 1 -3 -5 -5 -5 -5
14 14 14 14 14 14 14 13 13 12 12 11 11 11 11 11 12 14 15 15 14 13 12 11 10 9 8 8 7 7 6 7 7 8 7 6 5 5 4 -0 -4 -6 -6 -6 -6
14 14 14 14 14 14 14 13 13 13 12 12 11 12 12 12 14 15 15 15 14 13 12 11 11 10 9 8 8 8 7 7 7 8 7 6 6 5 4 -1 -5 -6 -5 -6 -6
14 14 14 14 15 15 14 13 13 13 12 12 12 12 12 13 15 15 15 15 14 14 13 12 12 11 10 9 9 8 7 6 7 7 7 7 6 6 5 1 -3 -4 -4 -4 -5
14 14 14 15 15 15 14 13 13 13 12 12 12 12 12 14 15 15 14 14 14 14 13 13 12 11 10 9 8 7 6 6 6 7 8 7 6 7 7 4 1 -1 -2 -3 -4
14 14 14 14 14 14 13 13 12 12 12 12 12 12 13 14 14 14 14 13 13 13 13 12 12 11 10 8 6 6 5 5 6 7 8 7 6 7 8 6 3 1 0 -1 -2
15 15 14 14 14 13 12 12 12 12 12 12 12 12 13 13 13 14 13 13 13 12 12 11 11 10 9 8 6 6 6 6 7 8 8 7 8 9 9 8 6 4 2 1 0
15 15 14 14 13 12 12 12 12 12 12 12 13 13 13 13 13 13 13 12 12 11 11 10 9 9 9 9 8 8 7 7 8 9 9 8 8 9 10 9 8 7 6 4 3
14 14 14 13 12 12 11 11 12 12 12 12 12 13 13 13 12 12 12 11 11 10 10 9 9 9 10 10 10 9 8 8 9 10 10 9 9 9 10 10 9 9 8 7 6
13 13 13 13 12 11 11 11 11 11 11 11 12 12 12 12 12 11 11 10 10 9 9 8 9 9 9 9 8 7 7 7 8 9 9 8 8 8 9 10 9 9 8 8 8
13 12 12 12 11 11 11 11 10 9 8 10 11 12 12 11 10 10 10 9 8 7 7 7 7 7 7 6 6 6 6 7 6 6 6 6 6 7 8 9 9 9 8 8 9
12 12 11 11 10 10 10 10 9 7 6 8 11 11 10 9 8 8 8 7 7 6 6 6 6 5 5 5 5 5 5 6 5 4 4 4 4 5 6 7 8 8 8 9 10
12 11 11 10 10 10 9 9 8 6 6 8 9 9 8 7 6 6 6 6 5 5 4 5 5 5 5 5 5 5 5 4 4 3 3 3 3 4 5 6 7 8 8 9 10
11 11 10 10 10 9 8 8 7 7 8 8 8 6 5 5 4 4 4 4 4 4 4 4 4 5 5 5 5 5 4 3 2 1 2 3 3 4 5 6 6 6 7 8 9
11 10 10 10 9 8 8 7 6 7 8 7 6 4 3 3 3 3 3 4 4 4 4 3 4 5 5 5 5 4 3 2 1 1 1 2 3 3 4 5 5 5 6 7 7
10 10 9 9 9 9 8 7 7 7 6 5 4 3 2 2 3 3 4 4 5 5 4 3 4 5 6 6 5 4 3 2 2 1 1 2 2 2 3 4 4 4 4 4 5
10 10 10 10 10 10 9 8 7 6 4 3 3 2 2 3 3 4 4 5 5 5 5 5 4 5 6 6 5 4 3 3 2 2 1 1 2 2 2 3 3 3 3 3 3
10 10 10 10 10 10 9 8 6 5 4 3 3 3 3 3 4 4 4 5 6 6 6 6 5 5 5 6 6 5 4 3 2 2 1 1 2 3 4 4 4 4 4 4 4
10 9 10 10 10 10 9 7 5 4 4 3 3 3 3 4 4 4 5 5 6 6 6 6 5 5 5 5 6 6 4 4 3 2 2 1 2 4 6 6 5 5 6 6 6
9 10 10 10 10 9 9 7 5 4 4 4 4 4 4 4 4 5 5 6 6 6 7 6 5 4 4 5 6 6 5 5 4 3 3 2 3 5 7 6 6 6 7 8 8
9 9 10 10 10 9 8 7 5 4 4 4 4 4 4 4 5 5 5 6 6 7 7 7 6 4 4 4 5 6 6 6 5 4 4 4 5 6 7 7 7 7 8 9 10
9 9 9 10 10 10 8 7 5 4 5 4 5 5 5 4 5 5 5 6 6 7 7 7 6 5 5 5 6 6 7 7 6 6 5 5 6 7 7 7 8 9 9 9 10
9 10 10 10 10 9 8 7 5 5 5 5 5 5 5 5 5 5 6 6 6 7 7 6 6 6 6 6 7 7 7 8 8 8 7 7 7 8 8 9 10 10 10 10 10
10 10 10 10 9 9 8 7 6 5 5 5 5 5 5 5 6 6 6 7 7 6 6 6 6 5 6 6 6 6 7 8 9 9 8 7 8 8 9 10 11 12 11 11 11